This demonstration page uses our WeatherBlox Daily Observations layout. Learn more.

Left ArrowRight Arrow

39.92423, -83.80882

Hourly Observations for August 19, 2020

Temp ( °F °C ) Dew Point ( °F °C ) Humidity (%) Winds ( mph kmh ) Pressure ( in mb ) Visibility ( mi km ) Precip ( " mm )
12:56 am 00:56 Clear 58 14.4 55 12.8 90 90 NE 6 9 30.03 1017 10 16 N/A
1:56 am 01:56 Partly Cloudy 57 13.9 57 13.9 100 100 N N/A 30.03 1017 10 16 N/A
2:56 am 02:56 Clear 56 13.3 56 13.3 100 100 N 3 6 30.02 1017 10 16 N/A
3:56 am 03:56 Clear 54 12.2 54 12.2 100 100 N 3 6 30.02 1017 10 16 N/A
4:56 am 04:56 Clear 54 12.2 54 12.2 100 100 NNE 3 6 30.01 1016 10 16 N/A
5:56 am 05:56 Clear 53 11.7 53 11.7 100 100 N N/A 30.03 1017 10 16 N/A
6:56 am 06:56 Sunny 51 10.6 51 10.6 100 100 NE 3 6 30.04 1017 10 16 N/A
7:56 am 07:56 Sunny 56 13.3 56 13.3 100 100 N N/A 30.06 1018 10 16 N/A
8:56 am 08:56 Sunny 63 17.2 58 14.4 84 84 NE 5 7 30.07 1018 10 16 N/A
9:56 am 09:56 Sunny 67 19.4 60 15.6 79 79 E 8 13 30.09 1019 10 16 N/A
10:56 am 10:56 Sunny 70 21.1 58 14.4 66 66 ENE 8 13 30.09 1019 10 16 N/A
11:56 am 11:56 Sunny 72 22.2 58 14.4 61 61 VRB 7 11 30.09 1019 10 16 N/A
12:56 pm 12:56 Mostly Sunny 72 22.2 56 13.3 57 57 ENE 9 15 30.08 1019 10 16 N/A
1:56 pm 13:56 Mostly Cloudy 74 23.3 58 14.4 57 57 ENE 10 17 30.07 1018 10 16 N/A
2:56 pm 14:56 Mostly Cloudy 76 24.4 57 13.9 52 52 ENE 9 15 30.06 1018 10 16 N/A
3:56 pm 15:56 Mostly Sunny 76 24.4 55 12.8 48 48 NNE 10 17 30.05 1018 10 16 N/A
4:56 pm 16:56 Mostly Sunny 77 25 57 13.9 50 50 NE 13 20 30.03 1017 10 16 N/A
5:56 pm 17:56 Mostly Sunny 76 24.4 55 12.8 48 48 ENE 10 17 30.03 1017 10 16 N/A
6:56 pm 18:56 Sunny 74 23.3 57 13.9 56 56 ENE 5 7 30.03 1017 10 16 N/A
7:56 pm 19:56 Sunny 69 20.6 58 14.4 68 68 ENE 7 11 30.04 1017 10 16 N/A
8:56 pm 20:56 Clear 64 17.8 58 14.4 81 81 NE 7 11 30.06 1018 10 16 N/A
9:56 pm 21:56 Clear 62 16.7 57 13.9 84 84 NE 7 11 30.06 1018 10 16 N/A
10:56 pm 22:56 Clear 60 15.6 57 13.9 90 90 NE 6 9 30.07 1018 10 16 N/A
11:56 pm 23:56 Clear 59 15 56 13.3 90 90 ENE 6 9 30.07 1018 10 16 N/A

Powered by AerisWeather